TimeCDT,TemperatureF,Dew PointF,Humidity,Sea Level PressureIn,VisibilityMPH,Wind Direction,Wind SpeedMPH,Gust SpeedMPH,PrecipitationIn,Events,Conditions,WindDirDegrees,DateUTC
12:54 AM,60.1,55.9,86,30.07,10.0,Calm,Calm,-,N/A,,Clear,0,2013-09-04 05:54:00
1:54 AM,59.0,55.9,90,30.08,10.0,Calm,Calm,-,N/A,,Clear,0,2013-09-04 06:54:00
2:54 AM,57.9,55.0,90,30.09,9.0,Calm,Calm,-,N/A,,Clear,0,2013-09-04 07:54:00
3:54 AM,57.9,55.0,90,30.11,8.0,Calm,Calm,-,N/A,,Clear,0,2013-09-04 08:54:00
4:54 AM,57.0,54.0,89,30.11,10.0,Calm,Calm,-,N/A,,Clear,0,2013-09-04 09:54:00
5:54 AM,57.0,53.1,87,30.12,9.0,Calm,Calm,-,N/A,,Clear,0,2013-09-04 10:54:00
6:54 AM,55.9,54.0,93,30.14,7.0,Calm,Calm,-,N/A,,Clear,0,2013-09-04 11:54:00
7:54 AM,61.0,57.0,87,30.14,7.0,SSW,3.5,-,N/A,,Clear,210,2013-09-04 12:54:00
8:54 AM,66.9,57.9,73,30.15,10.0,Calm,Calm,-,N/A,,Clear,0,2013-09-04 13:54:00
9:54 AM,72.0,57.9,61,30.16,10.0,West,4.6,-,N/A,,Clear,270,2013-09-04 14:54:00
10:54 AM,75.9,57.0,52,30.16,10.0,Calm,Calm,-,N/A,,Clear,0,2013-09-04 15:54:00
11:54 AM,80.1,55.9,43,30.15,10.0,Calm,Calm,-,N/A,,Clear,0,2013-09-04 16:54:00
12:54 PM,82.0,53.1,37,30.13,10.0,Variable,3.5,-,N/A,,Clear,0,2013-09-04 17:54:00
1:54 PM,84.0,52.0,33,30.14,10.0,North,6.9,-,N/A,,Clear,350,2013-09-04 18:54:00
2:54 PM,84.9,52.0,32,30.12,10.0,Calm,Calm,-,N/A,,Clear,0,2013-09-04 19:54:00
3:54 PM,86.0,53.1,32,30.11,10.0,NW,3.5,-,N/A,,Clear,320,2013-09-04 20:54:00
4:54 PM,86.0,51.1,30,30.09,10.0,NNW,4.6,-,N/A,,Clear,340,2013-09-04 21:54:00
5:54 PM,84.0,53.1,34,30.09,10.0,WNW,3.5,-,N/A,,Clear,300,2013-09-04 22:54:00
6:54 PM,79.0,55.0,44,30.10,10.0,Calm,Calm,-,N/A,,Clear,0,2013-09-04 23:54:00
7:54 PM,72.0,55.9,57,30.11,10.0,Calm,Calm,-,N/A,,Clear,0,2013-09-05 00:54:00
8:54 PM,69.1,57.9,68,30.12,10.0,Calm,Calm,-,N/A,,Clear,0,2013-09-05 01:54:00
9:54 PM,66.9,57.9,73,30.12,10.0,Calm,Calm,-,N/A,,Clear,0,2013-09-05 02:54:00
10:54 PM,66.0,57.9,75,30.12,10.0,Calm,Calm,-,N/A,,Clear,0,2013-09-05 03:54:00
11:54 PM,64.9,57.9,78,30.13,10.0,Calm,Calm,-,N/A,,Clear,0,2013-09-05 04:54:00